Regional Weather Roundup
Issued by NWS

Home | Current Version | Previous Version | Text Only | Print | Product List | Glossary Off
Versions: 1 2 3 4 5 6 7 8 9 10 11 12 13 14 15 16 17 18 19 20 21 22 23 24 25 26 27 28 29 30 31 32 33 34 35 36 37 38 39 40 41 42 43 44 45 46 47 48 49 50

000
ASUS45 KABQ 102210
RWRNM
NEW MEXICO REGIONAL WEATHER ROUNDUP
NATIONAL WEATHER SERVICE ALBUQUERQUE NM
300 PM MST SUN DEC 10 2017

NOTE: "FAIR" MEANS FEW OR NO CLOUDS BELOW 12,000 FEET AGL WITH NO
       SIGNIFICANT WEATHER OR OBSTRUCTIONS TO VISION.

      THIS PRODUCT IS RELEASED AS TWO VERSIONS.  ONE VERSION NEAR
      THE TOP OF THE HOUR CONTAINING PRELIMINARY DATA FROM ALBUQUERQUE
      AND OTHER STATIONS.  A FINAL VERSION WITH ADDITIONAL DATA IS
      ISSUED ABOUT 10 MINUTES AFTER THE HOUR.

NMZ501-503-504-510>518-102300-
NORTHWEST PLATEAU/NORTHCENTRAL MOUNTAINS

CITY           SKY/WX    TMP DP  RH WIND       PRES   REMARKS
FARMINGTON     FAIR      47   7  19 SW6       30.45F
LOS ALAMOS     FAIR      50   3  14 CALM      30.47S
SANTA FE       FAIR      52   2  13 SW6       30.44F
TAOS           FAIR      53  -6   8 CALM      30.48S
ANGEL FIRE     FAIR      49 -13   7 SW15      30.47S

$$
NMZ402-403-502-505>509-102300-
WESTCENTRAL MOUNTAINS/SOUTHWEST MOUNTAINS

CITY           SKY/WX    TMP DP  RH WIND       PRES   REMARKS
GALLUP         FAIR      55  -5   8 N3        30.45F
GRANTS         FAIR      54  -5   9 NW5       30.46F
SILVER CITY    FAIR      55   6  13 SE9       30.43S

$$
NMZ407-409-411-412-102300-
SOUTHERN DESERTS

CITY           SKY/WX    TMP DP  RH WIND       PRES   REMARKS
DEMING         FAIR      59  12  15 E9        30.41F
LAS CRUCES     FAIR      57  13  17 SE3       30.43F
HOLLOMAN AFB     N/A    N/A N/A N/A MISG        N/A
ALAMOGORDO     FAIR      57  14  18 W5        30.44S
T OR C         FAIR      58  11  15 VRB3      30.42F

$$
NMZ519>523-102300-
CENTRAL VALLEYS/CENTRAL HIGHLANDS

CITY           SKY/WX    TMP DP  RH WIND       PRES   REMARKS
ALBUQUERQUE    FAIR      53   2  12 CALM      30.44F
DOUBLE EAGLE   MOSUNNY   52   7  16 CALM      30.45F
MORIARTY ARPT  FAIR      57   8  13 S5        30.44F
CLINES CORNERS FAIR      53  -1  11 W10       30.45S
BELEN          FAIR      53   4  14 CALM      30.44F
SOCORRO        FAIR      53   5  14 N6        30.45S

$$
NMZ524>526-539-540-102300-
SOUTHCENTRAL MOUNTAINS

CITY           SKY/WX    TMP DP  RH WIND       PRES   REMARKS
RUIDOSO        FAIR      55   5  13 NW10      30.47R

$$
NMZ527>531-102300-
NORTHEAST HIGHLANDS/NORTHEAST PLAINS

CITY           SKY/WX    TMP DP  RH WIND       PRES   REMARKS
LAS VEGAS      FAIR      54  -5   8 S12       30.41F
RATON          FAIR      56 -11   6 S7        30.39S
CLAYTON        FAIR      59  -4   7 S9        30.36S

$$
NMZ532>537-102300-
EASTCENTRAL PLAINS

CITY           SKY/WX    TMP DP  RH WIND       PRES   REMARKS
SANTA ROSA     FAIR      62   5  10 N3        30.37F
TUCUMCARI      FAIR      63   2   8 CALM      30.34F
CANNON AFB     FAIR      62   7  11 NW7       30.37F
CLOVIS AIRPORT FAIR      61   9  12 NW8       30.37F

$$
NMZ028-029-538-102300-
SOUTHEAST PLAINS

CITY           SKY/WX    TMP DP  RH WIND       PRES   REMARKS
ROSWELL        FAIR      65   5   9 SE6       30.37S
ARTESIA        FAIR      64  14  14 S7        30.37F
CARLSBAD       FAIR      64  24  21 SE13      30.36F
HOBBS          SUNNY     66   0   7 SW10      30.38S


$$




USA.gov is the U.S. government's official web portal to all federal, state and local government web resources and services.